| time (UTC) | temp C | wind direction | speed KPH | gust KPH | rain 1hr cm | rain 24hr cm | rain mn cm | humidity % | barometer mb |
| 20260505114513 | 20 | 284 | 0.0 | 9.7 | 0.00 | 0.00 | 0.00 | 64 | 1004.8 |
| 20260505113111 | 20 | 308 | 3.2 | 20.9 | 0.00 | 0.00 | 0.00 | 63 | 1004.8 |
| 20260505111542 | 20 | 275 | 0.0 | 12.9 | 0.00 | 0.00 | 0.00 | 61 | 1004.8 |
| 20260505101543 | 20 | 302 | 3.2 | 27.4 | 0.00 | 0.00 | 0.00 | 66 | 1005.4 |
| 20260505100037 | 20 | 301 | 1.6 | 20.9 | 0.00 | 0.00 | 0.00 | 64 | 1005.5 |
| 20260505094532 | 20 | 326 | 0.0 | 12.9 | 0.00 | 0.00 | 0.00 | 62 | 1005.7 |
| 20260505093034 | 20 | 242 | 0.0 | 11.3 | 0.00 | 0.00 | 0.00 | 66 | 1005.9 |
| 20260505091538 | 19 | 273 | 1.6 | 17.7 | 0.00 | 0.00 | 0.00 | 66 | 1006.0 |
| 20260505090041 | 18 | 279 | 3.2 | 17.7 | 0.00 | 0.00 | 0.00 | 70 | 1006.2 |
| 20260505084525 | 18 | 294 | 0.0 | 9.7 | 0.00 | 0.00 | 0.00 | 70 | 1006.3 |
| 20260505083020 | 17 | 238 | 0.0 | 3.2 | 0.00 | 0.00 | 0.00 | 74 | 1006.4 |
| 20260505081524 | 16 | 236 | 1.6 | 9.7 | 0.00 | 0.00 | 0.00 | 74 | 1006.6 |
| 20260505080041 | 17 | 282 | 0.0 | 0.0 | 0.00 | 0.00 | 0.00 | 73 | 1006.6 |
| 20260505074512 | 16 | 283 | 0.0 | 0.0 | 0.00 | 0.00 | 0.00 | 76 | 1006.6 |
| 20260505073014 | 16 | 296 | 0.0 | 0.0 | 0.00 | 0.00 | 0.00 | 76 | 1006.7 |
| 20260505071508 | 15 | 331 | 0.0 | 3.2 | 0.00 | 0.00 | 0.00 | 79 | 1006.8 |
| 20260505070004 | 15 | 237 | 0.0 | 0.0 | 0.00 | 0.00 | 0.00 | 80 | 1007.0 |
| 20260505064501 | 15 | 169 | 0.0 | 0.0 | 0.00 | 0.00 | 0.00 | 81 | 1007.1 |
| 20260505063101 | 13 | 165 | 0.0 | 0.0 | 0.00 | 0.00 | 0.00 | 84 | 1007.0 |
| 20260505061600 | 13 | 165 | 0.0 | 0.0 | 0.00 | 0.00 | 0.00 | 86 | 1007.2 |
| 20260505060054 | 13 | 165 | 0.0 | 0.0 | 0.00 | 0.00 | 0.00 | 86 | 1007.3 |
| 20260505054556 | 13 | 165 | 0.0 | 0.0 | 0.00 | 0.00 | 0.00 | 87 | 1007.4 |
| 20260505053052 | 12 | 165 | 0.0 | 0.0 | 0.00 | 0.00 | 0.00 | 87 | 1007.5 |
| 20260505051551 | 12 | 165 | 0.0 | 0.0 | 0.00 | 0.00 | 0.00 | 87 | 1007.5 |
| 20260505050123 | 11 | 166 | 0.0 | 0.0 | 0.00 | 0.00 | 0.00 | 91 | 1007.5 |
| 20260505041551 | 10 | 165 | 0.0 | 0.0 | 0.00 | 0.00 | 0.00 | 91 | 1007.5 |
| 20260505040050 | 10 | 165 | 0.0 | 0.0 | 0.00 | 0.00 | 0.00 | 91 | 1007.4 |
| 20260505034537 | 11 | 165 | 0.0 | 0.0 | 0.00 | 0.00 | 0.00 | 91 | 1007.4 |
| 20260505033037 | 11 | 165 | 0.0 | 0.0 | 0.00 | 0.00 | 0.00 | 90 | 1007.6 |
| 20260505031540 | 11 | 165 | 0.0 | 0.0 | 0.00 | 0.00 | 0.00 | 89 | 1007.7 |
| 20260505030035 | 12 | 165 | 0.0 | 0.0 | 0.00 | 0.00 | 0.00 | 89 | 1007.9 |
| 20260505024528 | 12 | 165 | 0.0 | 0.0 | 0.00 | 0.00 | 0.00 | 89 | 1007.9 |
| 20260505023033 | 12 | 165 | 0.0 | 0.0 | 0.00 | 0.00 | 0.00 | 88 | 1008.2 |
| 20260505021525 | 12 | 165 | 0.0 | 0.0 | 0.00 | 0.00 | 0.00 | 88 | 1008.5 |
| 20260505020021 | 12 | 165 | 0.0 | 0.0 | 0.00 | 0.00 | 0.00 | 88 | 1008.6 |
| 20260505014518 | 12 | 165 | 0.0 | 0.0 | 0.00 | 0.00 | 0.00 | 87 | 1008.8 |
| 20260505013020 | 12 | 165 | 0.0 | 0.0 | 0.00 | 0.00 | 0.00 | 88 | 1009.0 |
| 20260505011521 | 12 | 165 | 0.0 | 0.0 | 0.00 | 0.00 | 0.00 | 87 | 1009.0 |
| 20260505010013 | 12 | 165 | 0.0 | 0.0 | 0.00 | 0.00 | 0.00 | 86 | 1009.0 |
| 20260505004517 | 13 | 165 | 0.0 | 0.0 | 0.00 | 0.00 | 0.00 | 86 | 1008.9 |
| 20260505003009 | 13 | 165 | 0.0 | 0.0 | 0.00 | 0.00 | 0.00 | 85 | 1009.0 |
| 20260505001508 | 13 | 165 | 0.0 | 0.0 | 0.00 | 0.00 | 0.00 | 86 | 1009.1 |
| 20260505000010 | 13 | 165 | 0.0 | 0.0 | 0.00 | 0.00 | 0.00 | 86 | 1009.1 |
| 20260504234504 | 13 | 165 | 0.0 | 0.0 | 0.00 | 0.00 | 0.00 | 85 | 1009.4 |
| 20260504233003 | 13 | 165 | 0.0 | 0.0 | 0.00 | 0.00 | 0.00 | 85 | 1009.6 |
| 20260504231600 | 13 | 165 | 0.0 | 0.0 | 0.00 | 0.00 | 0.00 | 85 | 1009.8 |
| 20260504230059 | 13 | 165 | 0.0 | 0.0 | 0.00 | 0.00 | 0.00 | 84 | 1009.9 |
| 20260504224609 | 13 | 165 | 0.0 | 0.0 | 0.00 | 0.00 | 0.00 | 83 | 1009.9 |
| 20260504223055 | 13 | 165 | 0.0 | 0.0 | 0.00 | 0.00 | 0.00 | 81 | 1009.9 |
| 20260504221552 | 14 | 165 | 0.0 | 0.0 | 0.00 | 0.00 | 0.00 | 81 | 1009.9 |
| 20260504220051 | 14 | 165 | 0.0 | 0.0 | 0.00 | 0.00 | 0.00 | 81 | 1009.8 |
| 20260504214550 | 14 | 165 | 0.0 | 0.0 | 0.00 | 0.00 | 0.00 | 80 | 1009.9 |
| 20260504213116 | 14 | 165 | 0.0 | 0.0 | 0.00 | 0.00 | 0.00 | 79 | 1009.9 |
| 20260504211549 | 15 | 165 | 0.0 | 0.0 | 0.00 | 0.00 | 0.00 | 77 | 1010.2 |
| 20260504210050 | 15 | 165 | 0.0 | 0.0 | 0.00 | 0.00 | 0.00 | 76 | 1010.3 |
| 20260504204552 | 15 | 165 | 0.0 | 0.0 | 0.00 | 0.00 | 0.00 | 75 | 1010.5 |
| 20260504203059 | 16 | 242 | 0.0 | 0.0 | 0.00 | 0.00 | 0.00 | 69 | 1010.4 |
| 20260504201546 | 16 | 242 | 0.0 | 0.0 | 0.00 | 0.00 | 0.00 | 67 | 1010.6 |
| 20260504200050 | 16 | 245 | 0.0 | 0.0 | 0.00 | 0.00 | 0.00 | 65 | 1010.5 |
| 20260504194558 | 16 | 253 | 0.0 | 1.6 | 0.00 | 0.00 | 0.00 | 63 | 1010.4 |
| 20260504193043 | 16 | 273 | 0.0 | 0.0 | 0.00 | 0.00 | 0.00 | 62 | 1010.3 |
| 20260504191534 | 17 | 279 | 0.0 | 0.0 | 0.00 | 0.00 | 0.00 | 61 | 1010.3 |
| 20260504190033 | 17 | 279 | 0.0 | 0.0 | 0.00 | 0.00 | 0.00 | 61 | 1010.2 |
| 20260504184533 | 17 | 279 | 0.0 | 6.4 | 0.00 | 0.00 | 0.00 | 59 | 1010.2 |
| 20260504183032 | 17 | 296 | 3.2 | 11.3 | 0.00 | 0.00 | 0.00 | 58 | 1010.2 |
| 20260504181531 | 18 | 290 | 0.0 | 11.3 | 0.00 | 0.00 | 0.00 | 58 | 1010.0 |
| 20260504180030 | 18 | 290 | 1.6 | 16.1 | 0.00 | 0.00 | 0.00 | 56 | 1010.1 |
| 20260504174529 | 18 | 300 | 0.0 | 11.3 | 0.00 | 0.00 | 0.00 | 55 | 1009.8 |
| 20260504173036 | 19 | 274 | 0.0 | 8.0 | 0.00 | 0.00 | 0.00 | 54 | 1009.7 |
| 20260504171528 | 19 | 294 | 0.0 | 6.4 | 0.00 | 0.00 | 0.00 | 53 | 1009.4 |